Weather History for Warrensburg, MO

Change the Weather History Date:

Monday, May 27, 2013

  Actual Average (KSZL) Record (KSZL)
Temperature  
Mean Temperature 68 °F -  
Max Temperature 77 °F 75 °F 91 °F (2012)
Min Temperature 60 °F 56 °F 50 °F (1999)
Cooling Degree Days 4    
Growing Degree Days 18 (Base 50)    
Moisture  
Dew Point 63 °F    
Average Humidity 81    
Maximum Humidity 100    
Minimum Humidity 69    
Precipitation  
Precipitation 0.01 in - - ()
Sea Level Pressure  
Sea Level Pressure 29.85 in    
Wind  
Wind Speed 9 mph (ESE)    
Max Wind Speed 23 mph    
Max Gust Speed 44 mph    
Visibility 10 miles    
Events Rain , Thunderstorm    
Averages and records for this station are not official NWS values.
T = Trace of Precipitation, MM = Missing Value Source: NWS Daily Summary

Daily Weather History Graph

Daily Weather History Graph

Search for Another Location

Airport:

Trip Planner

Search our weather history database for the weather conditions in past years. The results will help you decide how hot, cold, wet, or windy it might be!

Date:

Astronomy

May. 27, 2013 Rise Set
Actual Time 5:54 AM CDT 8:30 PM CDT
Civil Twilight 5:23 AM CDT 9:02 PM CDT
Nautical Twilight 4:44 AM CDT 9:40 PM CDT
Astronomical Twilight 4:01 AM CDT 10:24 PM CDT
Moon 11:11 PM CDT (5/27) 8:31 AM CDT (5/27)
Length of Visible Light 15h 38m
Length of Day
14h 36m
Waning Gibbous, 91% of the Moon is Illuminated
May 27
Waning Gibbous
May 31
Last Quarter
Jun 8
New
Jun 16
First Quarter
Jun 23
Full

Hourly Weather History & Observations

Time (CDT) Temp. Dew Point Humidity Pressure Visibility Wind Dir Wind Speed Gust Speed Precip Events Conditions
12:15 AM 73.4 °F 62.6 °F 69% 29.98 in 10.0 mi SE 4.6 mph - N/A   Overcast
12:35 AM 71.6 °F 62.6 °F 73% 29.99 in 10.0 mi East 3.5 mph - N/A   Overcast
12:55 AM 71.6 °F 62.6 °F 73% 30.00 in 10.0 mi East 4.6 mph - N/A   Overcast
1:15 AM 71.6 °F 60.8 °F 69% 30.02 in 10.0 mi NE 16.1 mph 23.0 mph N/A   Overcast
1:35 AM 68.0 °F 59.0 °F 73% 30.01 in 10.0 mi NE 15.0 mph 23.0 mph N/A   Overcast
1:55 AM 64.4 °F 57.2 °F 77% 30.00 in 10.0 mi ENE 12.7 mph 20.7 mph N/A   Overcast
2:15 AM 64.4 °F 57.2 °F 77% 29.99 in 10.0 mi East 6.9 mph - N/A   Overcast
2:35 AM 64.4 °F 57.2 °F 77% 29.98 in 10.0 mi ESE 6.9 mph - N/A   Scattered Clouds
2:55 AM 64.4 °F 57.2 °F 77% 29.98 in 10.0 mi ESE 4.6 mph - N/A   Mostly Cloudy
3:15 AM 64.4 °F 57.2 °F 77% 29.96 in 10.0 mi ESE 9.2 mph - N/A   Overcast
3:35 AM 64.4 °F 57.2 °F 77% 29.95 in 10.0 mi ESE 6.9 mph - N/A   Overcast
3:55 AM 64.4 °F 59.0 °F 83% 29.94 in 10.0 mi East 6.9 mph - N/A   Overcast
4:15 AM 66.2 °F 59.0 °F 78% 29.93 in 10.0 mi ESE 8.1 mph - N/A Rain Light Rain
4:35 AM 66.2 °F 59.0 °F 78% 29.93 in 10.0 mi SE 8.1 mph - N/A   Overcast
4:55 AM 68.0 °F 59.0 °F 73% 29.92 in 10.0 mi ESE 8.1 mph - N/A   Overcast
5:15 AM 68.0 °F 59.0 °F 73% 29.92 in 10.0 mi SE 8.1 mph - N/A   Overcast
5:35 AM 68.0 °F 60.8 °F 78% 29.90 in 10.0 mi ESE 13.8 mph - N/A   Drizzle
5:55 AM 66.2 °F 60.8 °F 83% 29.89 in 10.0 mi SE 9.2 mph - 0.01 in Rain Light Rain
6:15 AM 68.0 °F 60.8 °F 78% 29.89 in 10.0 mi SE 11.5 mph - N/A Rain Light Rain
6:35 AM 68.0 °F 60.8 °F 78% 29.89 in 10.0 mi SSE 6.9 mph 16.1 mph N/A   Mostly Cloudy
6:55 AM 68.0 °F 60.8 °F 78% 29.89 in 10.0 mi SE 8.1 mph - N/A   Mostly Cloudy
7:15 AM 68.0 °F 62.6 °F 83% 29.88 in 10.0 mi SE 6.9 mph - N/A   Mostly Cloudy
7:35 AM 68.0 °F 62.6 °F 83% 29.88 in 10.0 mi SE 9.2 mph - N/A   Overcast
8:15 AM 68.0 °F 62.6 °F 83% 29.86 in 10.0 mi SE 11.5 mph - N/A   Scattered Clouds
8:35 AM 68.0 °F 62.6 °F 83% 29.84 in 10.0 mi SSE 12.7 mph 16.1 mph N/A   Mostly Cloudy
8:55 AM 69.8 °F 62.6 °F 78% 29.87 in 10.0 mi South 5.8 mph - N/A   Overcast
9:35 AM 69.8 °F 64.4 °F 83% 29.88 in 10.0 mi Calm Calm - N/A   Overcast
10:15 AM 69.8 °F 64.4 °F 83% 29.88 in 10.0 mi Calm Calm - N/A   Overcast
10:35 AM 69.8 °F 64.4 °F 83% 29.89 in 10.0 mi Calm Calm - N/A Thunderstorm Overcast
10:55 AM 64.4 °F 60.8 °F 88% 29.93 in 10.0 mi North 16.1 mph 27.6 mph N/A Rain , Thunderstorm Rain
11:15 AM 62.6 °F 59.0 °F 88% 29.89 in 7.0 mi NNE 23.0 mph 27.6 mph N/A Rain , Thunderstorm Light Thunderstorms and Rain
11:35 AM 62.6 °F 60.8 °F 94% 29.90 in 10.0 mi NNE 20.7 mph 26.5 mph N/A Rain , Thunderstorm Light Thunderstorms and Rain
11:55 AM 60.8 °F 59.0 °F 94% 29.96 in 0.5 mi NNE 13.8 mph 43.7 mph N/A Rain , Thunderstorm Heavy Thunderstorms and Rain
12:15 PM 60.8 °F 59.0 °F 94% 29.95 in 4.0 mi North 6.9 mph - N/A Rain , Thunderstorm Thunderstorms and Rain
12:35 PM 60.8 °F 60.8 °F 100% 29.94 in 5.0 mi East 9.2 mph - N/A Rain , Thunderstorm Thunderstorms and Rain
12:55 PM 62.6 °F 60.8 °F 94% 29.91 in 7.0 mi East 15.0 mph 18.4 mph N/A Rain , Thunderstorm Light Thunderstorms and Rain
1:15 PM 62.6 °F 60.8 °F 94% 29.91 in 10.0 mi East 11.5 mph - N/A Thunderstorm Overcast
1:35 PM 62.6 °F 60.8 °F 94% 29.89 in 10.0 mi East 15.0 mph 18.4 mph N/A Thunderstorm Scattered Clouds
1:55 PM 62.6 °F 60.8 °F 94% 29.85 in 10.0 mi East 16.1 mph 24.2 mph N/A Thunderstorm Scattered Clouds
2:15 PM 62.6 °F 62.6 °F 100% 29.81 in 10.0 mi ESE 17.3 mph 20.7 mph N/A   Clear
2:35 PM 64.4 °F 62.6 °F 94% 29.72 in 10.0 mi SE 23.0 mph 28.8 mph N/A   Clear
2:55 PM 64.4 °F 64.4 °F 100% 29.77 in 10.0 mi SSE 13.8 mph 23.0 mph N/A   Clear
3:15 PM 68.0 °F 66.2 °F 94% 29.77 in 10.0 mi SSE 11.5 mph 19.6 mph N/A   Clear
3:35 PM 71.6 °F 66.2 °F 83% 29.76 in 10.0 mi SSE 11.5 mph 17.3 mph N/A   Clear
3:55 PM 73.4 °F 64.4 °F 73% 29.74 in 10.0 mi SE 12.7 mph 18.4 mph N/A   Clear
4:15 PM 75.2 °F 64.4 °F 69% 29.75 in 10.0 mi SSE 11.5 mph - N/A   Clear
4:35 PM 75.2 °F 66.2 °F 73% 29.73 in 10.0 mi SSE 13.8 mph - N/A   Clear
4:55 PM 75.2 °F 66.2 °F 73% 29.73 in 10.0 mi SSE 13.8 mph 17.3 mph N/A   Clear
5:15 PM 75.2 °F 66.2 °F 73% 29.73 in 10.0 mi SSE 10.4 mph 19.6 mph N/A   Clear
5:35 PM 77.0 °F 66.2 °F 69% 29.73 in 10.0 mi SE 6.9 mph 10.4 mph N/A   Clear
5:55 PM 77.0 °F 66.2 °F 69% 29.73 in 10.0 mi SE 8.1 mph - N/A   Clear
6:15 PM 77.0 °F 68.0 °F 74% 29.73 in 10.0 mi ESE 5.8 mph - N/A   Clear
6:35 PM 77.0 °F 68.0 °F 74% 29.72 in 10.0 mi SE 8.1 mph - N/A   Clear
6:55 PM 75.2 °F 68.0 °F 78% 29.72 in 10.0 mi SE 8.1 mph - N/A   Scattered Clouds
7:15 PM 75.2 °F 68.0 °F 78% 29.72 in 10.0 mi SE 6.9 mph - N/A   Clear
7:35 PM 73.4 °F 68.0 °F 83% 29.72 in 10.0 mi ESE 5.8 mph - N/A   Clear
7:55 PM 73.4 °F 68.0 °F 83% 29.73 in 10.0 mi Calm Calm - N/A   Clear
8:15 PM 73.4 °F 68.0 °F 83% 29.73 in 10.0 mi East 3.5 mph - N/A   Scattered Clouds
8:35 PM 73.4 °F 68.0 °F 83% 29.74 in 10.0 mi Calm Calm - N/A   Mostly Cloudy
8:55 PM 73.4 °F 68.0 °F 83% 29.74 in 10.0 mi Calm Calm - N/A   Overcast
9:15 PM 71.6 °F 68.0 °F 88% 29.74 in 10.0 mi East 3.5 mph - N/A   Overcast
9:35 PM 71.6 °F 68.0 °F 88% 29.73 in 10.0 mi ESE 5.8 mph - N/A   Overcast
9:55 PM 73.4 °F 66.2 °F 78% 29.75 in 10.0 mi SSE 5.8 mph - N/A   Overcast
10:15 PM 73.4 °F 64.4 °F 73% 29.76 in 10.0 mi SSE 6.9 mph - N/A   Overcast
10:35 PM 73.4 °F 64.4 °F 73% 29.77 in 10.0 mi SSE 8.1 mph - N/A   Overcast
10:55 PM 73.4 °F 64.4 °F 73% 29.76 in 10.0 mi SSE 8.1 mph - N/A   Mostly Cloudy
11:15 PM 73.4 °F 64.4 °F 73% 29.75 in 10.0 mi SSE 6.9 mph - N/A   Scattered Clouds
11:35 PM 73.4 °F 64.4 °F 73% 29.73 in 10.0 mi SSE 8.1 mph - N/A   Scattered Clouds
11:55 PM 73.4 °F 64.4 °F 73% 29.73 in 10.0 mi SSE 8.1 mph - N/A   Scattered Clouds